Flag for Germany Weather past 2 weeks in Kamen, North Rhine-Westphalia, Germany

Now
55 °F

Clear.


Feels Like: 55 °F
Forecast: 48 / 75 °F
Wind: 5 mph from East

Location: Dortmund / Wickede

Current Time: Aug 1, 2015 at 1:43:03 AM

Latest Report: Jul 31, 2015 at 10:50 PM


Visibility: 10 mi

Pressure: 30.04 "Hg

Humidity: 55%

Dew point: 39 °F

Location of KamenLocation

Historic Weather in Kamen — Graph

°F

Kamen temperature yesterday

Maximum temperature yesterday: 66 °F (at 3:50 PM)
Minimum temperature yesterday: 45 °F (at 5:20 AM)
Average temperature yesterday: 58 °F

Past Weeks' High & Low Weather Summary

 TemperatureHumidityPressure
High86 °F (Jul 17, 1:50 PM)88% (Jul 17, 6:50 AM)30.15 "Hg (Jul 17, 6:50 AM)
Low45 °F (Jul 31, 5:20 AM)27% (Jul 17, 3:20 PM)29.50 "Hg (Jul 25, 7:50 AM)
Average65 °F65%29.87 "Hg
* Reported Jul 16 10:20 PM — Jul 31 10:50 PM, Kamen, Weather by CustomWeather, © 2015

Note: Actual official high and low records may vary slightly from our data, if they occured in-between our weather recording intervals... More about our weather records

Advertising

Kamen weather history for previous 24 hours

 ConditionsComfort  
Time TempWeatherWind HumidityBarometerVisibility
10:50 PM
Fri, Jul 31
55 °FClear.5 mph55%30.04 "Hg10 mi
10:20 PM55 °FClear.5 mph59%30.04 "Hg10 mi
9:50 PM57 °FSunny.6 mph51%30.04 "Hg10 mi
9:20 PM57 °FSunny.5 mph51%30.04 "Hg10 mi
8:50 PM59 °FSunny.5 mph48%30.04 "Hg10 mi
8:20 PM63 °FPassing clouds.6 mph39%30.04 "HgN/A
7:50 PM63 °FPassing clouds.6 mph39%30.04 "HgN/A
7:20 PM64 °FPassing clouds.5 mph37%30.07 "HgN/A
6:50 PM64 °FPassing clouds.6 mph37%30.07 "HgN/A
6:20 PM66 °FSunny.6 mph35%30.07 "Hg10 mi
5:50 PM64 °FSunny.2 mph37%30.07 "Hg10 mi
5:20 PM66 °FSunny.3 mph35%30.07 "Hg10 mi
4:50 PM64 °FSunny.5 mph34%30.07 "Hg10 mi
4:20 PM64 °FPassing clouds.5 mph37%30.09 "HgN/A
3:50 PM66 °FSunny.3 mph40%30.09 "Hg10 mi
3:20 PM63 °FPassing clouds.6 mph49%30.09 "HgN/A
2:50 PM63 °FSunny.5 mph37%30.09 "Hg10 mi
2:20 PM61 °FSunny.3 mph48%30.12 "Hg10 mi
1:50 PM63 °FPassing clouds.5 mph39%30.12 "HgN/A
1:20 PM61 °FScattered clouds.2 mph48%30.12 "HgN/A
12:50 PM61 °FPassing clouds.6 mph48%30.12 "HgN/A
12:20 PM61 °FScattered clouds.3 mph52%30.12 "HgN/A
11:50 AM59 °FScattered clouds.6 mph51%30.12 "HgN/A
11:20 AM59 °FScattered clouds.3 mph55%30.12 "HgN/A
10:50 AM57 °FScattered clouds.3 mph55%30.12 "HgN/A
10:20 AM57 °FScattered clouds.6 mph63%30.12 "HgN/A
9:20 AM54 °FPassing clouds.6 mph72%30.15 "HgN/A
8:50 AM54 °FPassing clouds.5 mph72%30.15 "HgN/A
8:20 AM54 °FPassing clouds.6 mph72%30.12 "HgN/A
7:50 AM52 °FSunny.6 mph77%30.12 "Hg10 mi
7:20 AM50 °FPassing clouds.7 mph82%30.12 "HgN/A
6:50 AM46 °FClear.7 mph87%30.12 "Hg10 mi
6:20 AM45 °FClear.7 mph87%30.09 "Hg10 mi
5:50 AM45 °FPassing clouds.7 mph87%30.09 "HgN/A
5:20 AM45 °FClear.7 mph87%30.09 "Hg10 mi
Weather by CustomWeather, © 2015

See weather overviewHow to use our weather pages